Year,Month,Day,Hour,Minute,Value (Times are PST for temperature in C)
2016,04,16,07,53,8.40
2016,04,16,07,54,8.40
2016,04,16,07,55,8.40
2016,04,16,07,56,8.40
2016,04,16,07,57,8.50
2016,04,16,07,58,8.50
2016,04,16,07,59,8.60
2016,04,16,08,00,8.60
2016,04,16,08,01,8.60
2016,04,16,08,02,8.60
2016,04,16,08,03,8.60
2016,04,16,08,04,8.60
2016,04,16,08,05,8.70
2016,04,16,08,06,8.70
2016,04,16,08,07,8.70
2016,04,16,08,08,8.70
2016,04,16,08,09,8.70
2016,04,16,08,10,8.80
2016,04,16,08,11,8.80
2016,04,16,08,12,8.80
2016,04,16,08,13,8.90
2016,04,16,08,14,8.90
2016,04,16,08,15,9.00
2016,04,16,08,16,9.00
2016,04,16,08,17,9.00
2016,04,16,08,18,9.10
2016,04,16,08,19,9.10
2016,04,16,08,20,9.10
2016,04,16,08,21,9.20
2016,04,16,08,22,9.20
2016,04,16,08,23,9.20
2016,04,16,08,24,9.30
2016,04,16,08,25,9.30
2016,04,16,08,26,9.30
2016,04,16,08,27,9.30
2016,04,16,08,28,9.40
2016,04,16,08,29,9.40
2016,04,16,08,30,9.40
2016,04,16,08,31,9.40
2016,04,16,08,32,9.40
2016,04,16,08,33,9.40
2016,04,16,08,34,9.50
2016,04,16,08,35,9.50
2016,04,16,08,36,9.60
2016,04,16,08,37,9.60
2016,04,16,08,38,9.70
2016,04,16,08,39,9.70
2016,04,16,08,40,9.70
2016,04,16,08,41,9.80
2016,04,16,08,42,9.80
2016,04,16,08,43,9.80
2016,04,16,08,44,9.80
2016,04,16,08,45,9.90
2016,04,16,08,46,9.90
2016,04,16,08,47,9.90
2016,04,16,08,48,9.90
2016,04,16,08,49,9.90
2016,04,16,08,50,9.90
2016,04,16,08,51,10.00
2016,04,16,08,52,10.10
2016,04,16,08,53,10.10
2016,04,16,08,54,10.20
2016,04,16,08,55,10.20
2016,04,16,08,56,10.20
2016,04,16,08,57,10.30
2016,04,16,08,58,10.40
2016,04,16,08,59,10.40
2016,04,16,09,00,10.40
2016,04,16,09,01,10.40
2016,04,16,09,02,10.40
2016,04,16,09,03,10.40
2016,04,16,09,04,10.50
2016,04,16,09,05,10.50
2016,04,16,09,06,10.60
2016,04,16,09,07,10.70
2016,04,16,09,08,10.70
2016,04,16,09,09,10.70
2016,04,16,09,10,10.60
2016,04,16,09,11,10.60
2016,04,16,09,12,10.60
2016,04,16,09,13,10.50
2016,04,16,09,14,10.50
2016,04,16,09,15,10.50
2016,04,16,09,16,10.50
2016,04,16,09,17,10.40
2016,04,16,09,18,10.40
2016,04,16,09,19,10.40
2016,04,16,09,20,10.40
2016,04,16,09,21,10.30
2016,04,16,09,22,10.30
2016,04,16,09,23,10.40
2016,04,16,09,24,10.40
2016,04,16,09,25,10.40
2016,04,16,09,26,10.40
2016,04,16,09,27,10.40
2016,04,16,09,28,10.40
2016,04,16,09,29,10.40
2016,04,16,09,30,10.40
2016,04,16,09,31,10.40
2016,04,16,09,32,10.40
2016,04,16,09,33,10.50
2016,04,16,09,34,10.60
2016,04,16,09,35,10.60
2016,04,16,09,36,10.70
2016,04,16,09,37,10.70
2016,04,16,09,38,10.70
2016,04,16,09,39,10.60
2016,04,16,09,40,10.60
2016,04,16,09,41,10.60
2016,04,16,09,42,10.60
2016,04,16,09,43,10.50
2016,04,16,09,44,10.50
2016,04,16,09,45,10.50
2016,04,16,09,46,10.50
2016,04,16,09,47,10.50
2016,04,16,09,48,10.60
2016,04,16,09,49,10.60
2016,04,16,09,50,10.60
2016,04,16,09,51,10.60
2016,04,16,09,52,10.60
2016,04,16,09,53,10.70
2016,04,16,09,54,10.70
2016,04,16,09,55,10.70
2016,04,16,09,56,10.80
2016,04,16,09,57,10.80
2016,04,16,09,58,10.80
2016,04,16,09,59,10.80
2016,04,16,10,00,10.80
2016,04,16,10,01,10.70
2016,04,16,10,02,10.70
2016,04,16,10,03,10.70
2016,04,16,10,04,10.70
2016,04,16,10,05,10.70
2016,04,16,10,06,10.80
2016,04,16,10,07,10.80
2016,04,16,10,08,10.70
2016,04,16,10,09,10.70
2016,04,16,10,10,10.60
2016,04,16,10,11,10.60
2016,04,16,10,12,10.60
2016,04,16,10,13,10.60
2016,04,16,10,14,10.50
2016,04,16,10,15,10.60
2016,04,16,10,16,10.60
2016,04,16,10,17,10.60
2016,04,16,10,18,10.50
2016,04,16,10,19,10.60
2016,04,16,10,20,10.60
2016,04,16,10,21,10.70
2016,04,16,10,22,10.70
2016,04,16,10,23,10.70
2016,04,16,10,24,10.70
2016,04,16,10,25,10.80
2016,04,16,10,26,10.90
2016,04,16,10,27,11.00
2016,04,16,10,28,11.00
2016,04,16,10,29,11.10
2016,04,16,10,30,11.10
2016,04,16,10,31,11.20
2016,04,16,10,32,11.30
2016,04,16,10,33,11.30
2016,04,16,10,34,11.30
2016,04,16,10,35,11.20
2016,04,16,10,36,11.20
2016,04,16,10,37,11.20
2016,04,16,10,38,11.30
2016,04,16,10,39,11.30
2016,04,16,10,40,11.40
2016,04,16,10,41,11.30
2016,04,16,10,42,11.30
2016,04,16,10,43,11.30
2016,04,16,10,44,11.30
2016,04,16,10,45,11.20
2016,04,16,10,46,11.20
2016,04,16,10,47,11.20
2016,04,16,10,48,11.20
2016,04,16,10,49,11.20
2016,04,16,10,50,11.20
2016,04,16,10,51,11.20
2016,04,16,10,52,11.30
2016,04,16,10,53,11.30
2016,04,16,10,54,11.30
2016,04,16,10,55,11.30
2016,04,16,10,56,11.30
2016,04,16,10,57,11.30
2016,04,16,10,58,11.30
2016,04,16,10,59,11.30
2016,04,16,11,00,11.30
2016,04,16,11,01,11.30
2016,04,16,11,02,11.30
2016,04,16,11,03,11.30
2016,04,16,11,04,11.30
2016,04,16,11,05,11.40
2016,04,16,11,06,11.40
2016,04,16,11,07,11.40
2016,04,16,11,08,11.40
2016,04,16,11,09,11.40
2016,04,16,11,10,11.40
2016,04,16,11,11,11.40
2016,04,16,11,12,11.40
2016,04,16,11,13,11.40
2016,04,16,11,14,11.50
2016,04,16,11,15,11.50
2016,04,16,11,16,11.60
2016,04,16,11,17,11.60
2016,04,16,11,18,11.60
2016,04,16,11,19,11.60
2016,04,16,11,20,11.50
2016,04,16,11,21,11.50
2016,04,16,11,22,11.50
2016,04,16,11,23,11.50
2016,04,16,11,24,11.50
2016,04,16,11,25,11.50
2016,04,16,11,26,11.60
2016,04,16,11,27,11.70
2016,04,16,11,28,11.80
2016,04,16,11,29,11.80
2016,04,16,11,30,11.90
2016,04,16,11,31,11.90
2016,04,16,11,32,12.00
2016,04,16,11,33,12.10
2016,04,16,11,34,12.20
2016,04,16,11,35,12.20
2016,04,16,11,36,12.20
2016,04,16,11,37,12.10
2016,04,16,11,38,12.00
2016,04,16,11,39,12.00
2016,04,16,11,40,12.00
2016,04,16,11,41,12.00
2016,04,16,11,42,11.90
2016,04,16,11,43,11.90
2016,04,16,11,44,11.90
2016,04,16,11,45,11.90
2016,04,16,11,46,11.80
2016,04,16,11,47,11.80
2016,04,16,11,48,11.70
2016,04,16,11,49,11.70
2016,04,16,11,50,11.70
2016,04,16,11,51,11.70
2016,04,16,11,52,11.70
2016,04,16,11,53,11.70
2016,04,16,11,54,11.70
2016,04,16,11,55,11.80
2016,04,16,11,56,11.80
2016,04,16,11,57,11.80
2016,04,16,11,58,11.80
2016,04,16,11,59,11.80
2016,04,16,12,00,11.80
2016,04,16,12,01,11.90
2016,04,16,12,02,11.90
2016,04,16,12,03,11.90
2016,04,16,12,04,11.80
2016,04,16,12,05,11.80
2016,04,16,12,06,11.80
2016,04,16,12,07,11.90
2016,04,16,12,08,12.00
2016,04,16,12,09,12.00
2016,04,16,12,10,12.00
2016,04,16,12,11,12.10
2016,04,16,12,12,12.10
2016,04,16,12,13,12.20
2016,04,16,12,14,12.30
2016,04,16,12,15,12.30
2016,04,16,12,16,12.40
2016,04,16,12,17,12.50
2016,04,16,12,18,12.60
2016,04,16,12,19,12.70
2016,04,16,12,20,12.80
2016,04,16,12,21,13.00
2016,04,16,12,22,13.00
2016,04,16,12,23,13.00
2016,04,16,12,24,13.00
2016,04,16,12,25,13.00
2016,04,16,12,26,12.90
2016,04,16,12,27,12.90
2016,04,16,12,28,12.80
2016,04,16,12,29,12.80
2016,04,16,12,30,12.90
2016,04,16,12,31,12.90
2016,04,16,12,32,13.00
2016,04,16,12,33,13.10
2016,04,16,12,34,13.10
2016,04,16,12,35,13.10
2016,04,16,12,36,13.20
2016,04,16,12,37,13.20
2016,04,16,12,38,13.20
2016,04,16,12,39,13.10
2016,04,16,12,40,13.10
2016,04,16,12,41,12.90
2016,04,16,12,42,12.70
2016,04,16,12,43,12.40
2016,04,16,12,44,12.20
2016,04,16,12,45,12.00
2016,04,16,12,46,11.90
2016,04,16,12,47,11.80
2016,04,16,12,48,11.80
2016,04,16,12,49,11.80
2016,04,16,12,50,11.80
2016,04,16,12,51,11.90
2016,04,16,12,52,12.00
2016,04,16,12,53,12.20
2016,04,16,12,54,12.30
2016,04,16,12,55,12.50
2016,04,16,12,56,12.60
2016,04,16,12,57,12.80
2016,04,16,12,58,12.90
2016,04,16,12,59,13.00
2016,04,16,13,00,13.00
2016,04,16,13,01,13.10
2016,04,16,13,02,13.20
2016,04,16,13,03,13.30
2016,04,16,13,04,13.30
2016,04,16,13,05,13.40
2016,04,16,13,06,13.30
2016,04,16,13,07,13.20
2016,04,16,13,08,13.20
2016,04,16,13,09,13.10
2016,04,16,13,10,13.10
2016,04,16,13,11,13.00
2016,04,16,13,12,13.00
2016,04,16,13,13,13.00
2016,04,16,13,14,12.90
2016,04,16,13,15,12.90
2016,04,16,13,16,12.80
2016,04,16,13,17,12.80
2016,04,16,13,18,12.90
2016,04,16,13,19,13.00
2016,04,16,13,20,13.10
2016,04,16,13,21,13.20
2016,04,16,13,22,13.20
2016,04,16,13,23,13.20
2016,04,16,13,24,13.20
2016,04,16,13,25,13.20
2016,04,16,13,26,13.10
2016,04,16,13,27,13.10
2016,04,16,13,28,13.00
2016,04,16,13,29,13.00
2016,04,16,13,30,12.90
2016,04,16,13,31,12.90
2016,04,16,13,32,12.80
2016,04,16,13,33,12.80
2016,04,16,13,34,12.80
2016,04,16,13,35,12.80
2016,04,16,13,36,12.80
2016,04,16,13,37,12.90
2016,04,16,13,38,13.00
2016,04,16,13,39,13.10
2016,04,16,13,40,13.20
2016,04,16,13,41,13.20
2016,04,16,13,42,13.30
2016,04,16,13,43,13.40
2016,04,16,13,44,13.40
2016,04,16,13,45,13.40
2016,04,16,13,46,13.40
2016,04,16,13,47,13.50
2016,04,16,13,48,13.60
2016,04,16,13,49,13.70
2016,04,16,13,50,13.80
2016,04,16,13,51,14.00
2016,04,16,13,52,14.10
2016,04,16,13,53,14.20
2016,04,16,13,54,14.40
2016,04,16,13,55,14.50
2016,04,16,13,56,14.60
2016,04,16,13,57,14.70
2016,04,16,13,58,14.90
2016,04,16,13,59,15.00
2016,04,16,14,00,15.00
2016,04,16,14,01,14.90
2016,04,16,14,02,14.80
2016,04,16,14,03,14.70
2016,04,16,14,04,14.60
2016,04,16,14,05,14.50
2016,04,16,14,06,14.40
2016,04,16,14,07,14.40
2016,04,16,14,08,14.30
2016,04,16,14,09,14.30
2016,04,16,14,10,14.30
2016,04,16,14,11,14.30
2016,04,16,14,12,14.30
2016,04,16,14,13,14.30
2016,04,16,14,14,14.30
2016,04,16,14,15,14.30
2016,04,16,14,16,14.30
2016,04,16,14,17,14.30
2016,04,16,14,18,14.40
2016,04,16,14,19,14.40
2016,04,16,14,20,14.50
2016,04,16,14,21,14.50
2016,04,16,14,22,14.40
2016,04,16,14,23,14.30
2016,04,16,14,24,14.20
2016,04,16,14,25,14.10
2016,04,16,14,26,14.00
2016,04,16,14,27,13.90
2016,04,16,14,28,13.80
2016,04,16,14,29,13.70
2016,04,16,14,30,13.70
2016,04,16,14,31,13.60
2016,04,16,14,32,13.60
2016,04,16,14,33,13.50
2016,04,16,14,34,13.40
2016,04,16,14,35,13.30
2016,04,16,14,36,13.30
2016,04,16,14,37,13.30
2016,04,16,14,38,13.30
2016,04,16,14,39,13.40
2016,04,16,14,40,13.40
2016,04,16,14,41,13.40
2016,04,16,14,42,13.50
2016,04,16,14,43,13.50
2016,04,16,14,44,13.40
2016,04,16,14,45,13.40
2016,04,16,14,46,13.30
2016,04,16,14,47,13.20
2016,04,16,14,48,13.20
2016,04,16,14,49,13.10
2016,04,16,14,50,13.10
2016,04,16,14,51,13.10
2016,04,16,14,52,13.10
2016,04,16,14,53,13.10
2016,04,16,14,54,13.20
2016,04,16,14,55,13.20
2016,04,16,14,56,13.20
2016,04,16,14,57,13.20
2016,04,16,14,58,13.10
2016,04,16,14,59,13.10
2016,04,16,15,00,13.10
2016,04,16,15,01,13.10
2016,04,16,15,02,13.10
2016,04,16,15,03,13.20
2016,04,16,15,04,13.10
2016,04,16,15,05,13.10
2016,04,16,15,06,13.00
2016,04,16,15,07,13.00
2016,04,16,15,08,13.00
2016,04,16,15,09,13.10
2016,04,16,15,10,13.20
2016,04,16,15,11,13.20
2016,04,16,15,12,13.30
2016,04,16,15,13,13.30
2016,04,16,15,14,13.30
2016,04,16,15,15,13.40
2016,04,16,15,16,13.40
2016,04,16,15,17,13.50
2016,04,16,15,18,13.50
2016,04,16,15,19,13.60
2016,04,16,15,20,13.70
2016,04,16,15,21,13.80
2016,04,16,15,22,13.90
2016,04,16,15,23,14.00
2016,04,16,15,24,14.10
2016,04,16,15,25,14.20
2016,04,16,15,26,14.30
2016,04,16,15,27,14.50
2016,04,16,15,28,14.60
2016,04,16,15,29,14.60
2016,04,16,15,30,14.50
2016,04,16,15,31,14.50
2016,04,16,15,32,14.40
2016,04,16,15,33,14.40
2016,04,16,15,34,14.40
2016,04,16,15,35,14.40
2016,04,16,15,36,14.40
2016,04,16,15,37,14.40
2016,04,16,15,38,14.40
2016,04,16,15,39,14.40
2016,04,16,15,40,14.50
2016,04,16,15,41,14.70
2016,04,16,15,42,14.80
2016,04,16,15,43,14.90
2016,04,16,15,44,15.00
2016,04,16,15,45,15.10
2016,04,16,15,46,15.20
2016,04,16,15,47,15.30
2016,04,16,15,48,15.40
2016,04,16,15,49,15.50
2016,04,16,15,50,15.60
2016,04,16,15,51,15.60
2016,04,16,15,52,15.70
2016,04,16,15,53,15.70
2016,04,16,15,54,15.80
2016,04,16,15,55,15.80
2016,04,16,15,56,15.80
2016,04,16,15,57,15.80
2016,04,16,15,58,15.60
2016,04,16,15,59,15.40
2016,04,16,16,00,15.30
2016,04,16,16,01,15.10
2016,04,16,16,02,15.00
2016,04,16,16,03,14.90
2016,04,16,16,04,14.80
2016,04,16,16,05,14.80
2016,04,16,16,06,14.80
2016,04,16,16,07,14.80
2016,04,16,16,08,14.70
2016,04,16,16,09,14.60
2016,04,16,16,10,14.50
2016,04,16,16,11,14.40
2016,04,16,16,12,14.40
2016,04,16,16,13,14.30
2016,04,16,16,14,14.30
2016,04,16,16,15,14.30
2016,04,16,16,16,14.40
2016,04,16,16,17,14.40
2016,04,16,16,18,14.50
2016,04,16,16,19,14.60
2016,04,16,16,20,14.70
2016,04,16,16,21,14.80
2016,04,16,16,22,14.90
2016,04,16,16,23,15.00
2016,04,16,16,24,15.10
2016,04,16,16,25,15.20
2016,04,16,16,26,15.20
2016,04,16,16,27,15.20
2016,04,16,16,28,15.30
2016,04,16,16,29,15.30
2016,04,16,16,30,15.40
2016,04,16,16,31,15.50
2016,04,16,16,32,15.70
2016,04,16,16,33,15.80
2016,04,16,16,34,15.90
2016,04,16,16,35,16.00
2016,04,16,16,36,16.10
2016,04,16,16,37,16.10
2016,04,16,16,38,16.10
2016,04,16,16,39,16.10
2016,04,16,16,40,16.10
2016,04,16,16,41,16.10
2016,04,16,16,42,15.80
2016,04,16,16,43,15.60
2016,04,16,16,44,15.40
2016,04,16,16,45,15.20
2016,04,16,16,46,15.00
2016,04,16,16,47,14.90
2016,04,16,16,48,14.80
2016,04,16,16,49,14.70
2016,04,16,16,50,14.70
2016,04,16,16,51,14.60
2016,04,16,16,52,14.60
2016,04,16,16,53,14.70
2016,04,16,16,54,14.70
2016,04,16,16,55,14.70
2016,04,16,16,56,14.80
2016,04,16,16,57,14.90
2016,04,16,16,58,15.00
2016,04,16,16,59,15.10
2016,04,16,17,00,15.20
2016,04,16,17,01,15.20
2016,04,16,17,02,15.30
2016,04,16,17,03,15.40
2016,04,16,17,04,15.50
2016,04,16,17,05,15.60
2016,04,16,17,06,15.60
2016,04,16,17,07,15.60
2016,04,16,17,08,15.60
2016,04,16,17,09,15.60
2016,04,16,17,10,15.60
2016,04,16,17,11,15.50
2016,04,16,17,12,15.40
2016,04,16,17,13,15.40
2016,04,16,17,14,15.40
2016,04,16,17,15,15.40
2016,04,16,17,16,15.40
2016,04,16,17,17,15.40
2016,04,16,17,18,15.30
2016,04,16,17,19,15.30
2016,04,16,17,20,15.20
2016,04,16,17,21,15.20
2016,04,16,17,22,15.10
2016,04,16,17,23,15.00
2016,04,16,17,24,14.90
2016,04,16,17,25,14.90
2016,04,16,17,26,14.80
2016,04,16,17,27,14.90
2016,04,16,17,28,14.90
2016,04,16,17,29,15.00
2016,04,16,17,30,15.00
2016,04,16,17,31,15.10
2016,04,16,17,32,15.10
2016,04,16,17,33,15.20
2016,04,16,17,34,15.20
2016,04,16,17,35,15.20
2016,04,16,17,36,15.20
2016,04,16,17,37,15.10
2016,04,16,17,38,15.10
2016,04,16,17,39,15.10
2016,04,16,17,40,15.00
2016,04,16,17,41,15.00
2016,04,16,17,42,15.00
2016,04,16,17,43,14.90
2016,04,16,17,44,14.90
2016,04,16,17,45,14.80
2016,04,16,17,46,14.80
2016,04,16,17,47,14.80
2016,04,16,17,48,14.90
2016,04,16,17,49,14.90
2016,04,16,17,50,14.90
2016,04,16,17,51,14.90
2016,04,16,17,52,14.90
2016,04,16,17,53,14.80
2016,04,16,17,54,14.80
2016,04,16,17,55,14.70
2016,04,16,17,56,14.60
2016,04,16,17,57,14.50
2016,04,16,17,58,14.40
2016,04,16,17,59,14.40
2016,04,16,18,00,14.30
2016,04,16,18,01,14.30
2016,04,16,18,02,14.30
2016,04,16,18,03,14.30
2016,04,16,18,04,14.30
2016,04,16,18,05,14.30
2016,04,16,18,06,14.30
2016,04,16,18,07,14.30
2016,04,16,18,08,14.30
2016,04,16,18,09,14.40
2016,04,16,18,10,14.40
2016,04,16,18,11,14.40
2016,04,16,18,12,14.50
2016,04,16,18,13,14.50
2016,04,16,18,14,14.60
2016,04,16,18,15,14.60
2016,04,16,18,16,14.60
2016,04,16,18,17,14.60
2016,04,16,18,18,14.60
2016,04,16,18,19,14.60
2016,04,16,18,20,14.70
2016,04,16,18,21,14.70
2016,04,16,18,22,14.70
2016,04,16,18,23,14.70
2016,04,16,18,24,14.70
2016,04,16,18,25,14.70
2016,04,16,18,26,14.70
2016,04,16,18,27,14.70
2016,04,16,18,28,14.70
2016,04,16,18,29,14.70
2016,04,16,18,30,14.60
2016,04,16,18,31,14.60
2016,04,16,18,32,14.60
2016,04,16,18,33,14.50
2016,04,16,18,34,14.50
2016,04,16,18,35,14.40
2016,04,16,18,36,14.40
2016,04,16,18,37,14.40
2016,04,16,18,38,14.40
2016,04,16,18,39,14.30
2016,04,16,18,40,14.30
2016,04,16,18,41,14.30
2016,04,16,18,42,14.30
2016,04,16,18,43,14.30
2016,04,16,18,44,14.30
2016,04,16,18,45,14.30
2016,04,16,18,46,14.30
2016,04,16,18,47,14.30
2016,04,16,18,48,14.30
2016,04,16,18,49,14.30
2016,04,16,18,50,14.30
2016,04,16,18,51,14.30
2016,04,16,18,52,14.30
2016,04,16,18,53,14.30
2016,04,16,18,54,14.20
2016,04,16,18,55,14.20
2016,04,16,18,56,14.20
2016,04,16,18,57,14.20
2016,04,16,18,58,14.20
2016,04,16,18,59,14.20
2016,04,16,19,00,14.30
2016,04,16,19,01,14.30
2016,04,16,19,02,14.30
2016,04,16,19,03,14.30
2016,04,16,19,04,14.30
2016,04,16,19,05,14.30
2016,04,16,19,06,14.30
2016,04,16,19,07,14.30
2016,04,16,19,08,14.30
2016,04,16,19,09,14.30
2016,04,16,19,10,14.30
2016,04,16,19,11,14.30
2016,04,16,19,12,14.30
2016,04,16,19,13,14.30
2016,04,16,19,14,14.30
2016,04,16,19,15,14.30
2016,04,16,19,16,14.30
2016,04,16,19,17,14.30
2016,04,16,19,18,14.20
2016,04,16,19,19,14.20
2016,04,16,19,20,14.20
2016,04,16,19,21,14.20
2016,04,16,19,22,14.20
2016,04,16,19,23,14.20
2016,04,16,19,24,14.10
2016,04,16,19,25,14.10
2016,04,16,19,26,14.00
2016,04,16,19,27,13.90
2016,04,16,19,28,13.90
2016,04,16,19,29,13.80
2016,04,16,19,30,13.80
2016,04,16,19,31,13.70
2016,04,16,19,32,13.70
2016,04,16,19,33,13.60
2016,04,16,19,34,13.60
2016,04,16,19,35,13.50
2016,04,16,19,36,13.50
2016,04,16,19,37,13.40
2016,04,16,19,38,13.40
2016,04,16,19,39,13.40
2016,04,16,19,40,13.30
2016,04,16,19,41,13.30
2016,04,16,19,42,13.30
2016,04,16,19,43,13.20
2016,04,16,19,44,13.20
2016,04,16,19,45,13.20
2016,04,16,19,46,13.10
2016,04,16,19,47,13.10
2016,04,16,19,48,13.10
2016,04,16,19,49,13.00
2016,04,16,19,50,13.00
2016,04,16,19,51,12.90
2016,04,16,19,52,12.90
2016,04,16,19,53,12.80
2016,04,16,19,54,12.80
2016,04,16,19,55,12.70
2016,04,16,19,56,12.60
2016,04,16,19,57,12.60
2016,04,16,19,58,12.50
2016,04,16,19,59,12.40
2016,04,16,20,00,12.40
2016,04,16,20,01,12.30
2016,04,16,20,02,12.30
2016,04,16,20,03,12.20
2016,04,16,20,04,12.20
2016,04,16,20,05,12.10
2016,04,16,20,06,12.00
2016,04,16,20,07,12.00
2016,04,16,20,08,11.90
2016,04,16,20,09,11.80
2016,04,16,20,10,11.70
2016,04,16,20,11,11.70
2016,04,16,20,12,11.60
2016,04,16,20,13,11.50
2016,04,16,20,14,11.50
2016,04,16,20,15,11.40
2016,04,16,20,16,11.30
2016,04,16,20,17,11.30
2016,04,16,20,18,11.20
2016,04,16,20,19,11.20
2016,04,16,20,20,11.20
2016,04,16,20,21,11.10
2016,04,16,20,22,11.10
2016,04,16,20,23,11.10
2016,04,16,20,24,11.00
2016,04,16,20,25,11.00
2016,04,16,20,26,10.90
2016,04,16,20,27,10.90
2016,04,16,20,28,10.90
2016,04,16,20,29,10.80
2016,04,16,20,30,10.80
2016,04,16,20,31,10.80
2016,04,16,20,32,10.70
2016,04,16,20,33,10.70
2016,04,16,20,34,10.70
2016,04,16,20,35,10.60
2016,04,16,20,36,10.60
2016,04,16,20,37,10.60
2016,04,16,20,38,10.50
2016,04,16,20,39,10.50
2016,04,16,20,40,10.40
2016,04,16,20,41,10.40
2016,04,16,20,42,10.40
2016,04,16,20,43,10.40
2016,04,16,20,44,10.40
2016,04,16,20,45,10.30
2016,04,16,20,46,10.30
2016,04,16,20,47,10.30
2016,04,16,20,48,10.30
2016,04,16,20,49,10.30
2016,04,16,20,50,10.20
2016,04,16,20,51,10.20
2016,04,16,20,52,10.20
2016,04,16,20,53,10.20
2016,04,16,20,54,10.10
2016,04,16,20,55,10.10
2016,04,16,20,56,10.10
2016,04,16,20,57,10.10
2016,04,16,20,58,10.10
2016,04,16,20,59,10.00
2016,04,16,21,00,10.00
2016,04,16,21,01,10.00
2016,04,16,21,02,10.00
2016,04,16,21,03,10.00
2016,04,16,21,04,9.90
2016,04,16,21,05,9.90
2016,04,16,21,06,9.90
2016,04,16,21,07,9.90
2016,04,16,21,08,9.80
2016,04,16,21,09,9.80
2016,04,16,21,10,9.80
2016,04,16,21,11,9.80
2016,04,16,21,12,9.80
2016,04,16,21,13,9.80
2016,04,16,21,14,9.80
2016,04,16,21,15,9.80
2016,04,16,21,16,9.70
2016,04,16,21,17,9.70
2016,04,16,21,18,9.70
2016,04,16,21,19,9.70
2016,04,16,21,20,9.60
2016,04,16,21,21,9.60
2016,04,16,21,22,9.60
2016,04,16,21,23,9.60
2016,04,16,21,24,9.60
2016,04,16,21,25,9.50
2016,04,16,21,26,9.50
2016,04,16,21,27,9.50
2016,04,16,21,28,9.40
2016,04,16,21,29,9.40
2016,04,16,21,30,9.40
2016,04,16,21,31,9.40
2016,04,16,21,32,9.40
2016,04,16,21,33,9.40
2016,04,16,21,34,9.40
2016,04,16,21,35,9.40
2016,04,16,21,36,9.40
2016,04,16,21,37,9.40
2016,04,16,21,38,9.40
2016,04,16,21,39,9.40
2016,04,16,21,40,9.40
2016,04,16,21,41,9.40
2016,04,16,21,42,9.40
2016,04,16,21,43,9.40
2016,04,16,21,44,9.40
2016,04,16,21,45,9.40
2016,04,16,21,46,9.40
2016,04,16,21,47,9.40
2016,04,16,21,48,9.40
2016,04,16,21,49,9.40
2016,04,16,21,50,9.40
2016,04,16,21,51,9.30
2016,04,16,21,52,9.30
2016,04,16,21,53,9.30
2016,04,16,21,54,9.30
2016,04,16,21,55,9.30
2016,04,16,21,56,9.30
2016,04,16,21,57,9.30
2016,04,16,21,58,9.30
2016,04,16,21,59,9.30
2016,04,16,22,00,9.30
2016,04,16,22,01,9.30
2016,04,16,22,02,9.30
2016,04,16,22,03,9.40
2016,04,16,22,04,9.40
2016,04,16,22,05,9.40
2016,04,16,22,06,9.40
2016,04,16,22,07,9.50
2016,04,16,22,08,9.50
2016,04,16,22,09,9.60
2016,04,16,22,10,9.60
2016,04,16,22,11,9.60
2016,04,16,22,12,9.60
2016,04,16,22,13,9.70
2016,04,16,22,14,9.70
2016,04,16,22,15,9.70
2016,04,16,22,16,9.70
2016,04,16,22,17,9.80
2016,04,16,22,18,9.80
2016,04,16,22,19,9.80
2016,04,16,22,20,9.80
2016,04,16,22,21,9.80
2016,04,16,22,22,9.80
2016,04,16,22,23,9.80
2016,04,16,22,24,9.80
2016,04,16,22,25,9.80
2016,04,16,22,26,9.80
2016,04,16,22,27,9.80
2016,04,16,22,28,9.80
2016,04,16,22,29,9.80
2016,04,16,22,30,9.80
2016,04,16,22,31,9.80
2016,04,16,22,32,9.70
2016,04,16,22,33,9.70
2016,04,16,22,34,9.70
2016,04,16,22,35,9.70
2016,04,16,22,36,9.60
2016,04,16,22,37,9.60
2016,04,16,22,38,9.60
2016,04,16,22,39,9.60
2016,04,16,22,40,9.60
2016,04,16,22,41,9.60
2016,04,16,22,42,9.60
2016,04,16,22,43,9.60
2016,04,16,22,44,9.60
2016,04,16,22,45,9.60
2016,04,16,22,46,9.60
